#timestamp,LO_Frequency,Hit,StdDev 
1650146415.4,286046999.7,N
1650146435.2,286047002.1,N
1650146455.1,286047002.8,N
1650146456.0,286047002.8,N
1650146475.8,286047000.2,N
1650146495.7,286046999.9,N
1650146515.5,286046999.8,N
1650146535.3,286047000.2,N
1650146555.2,286047001.5,N
1650146575.0,286047004.0,N
1650146575.9,286047004.0,N
1650146595.8,286047004.2,N
1650146615.6,286047004.4,N
1650146635.4,286047002.4,N
1650146655.3,286046999.7,N
1650146675.1,286047002.8,N
1650146695.9,286046999.9,N
1650146715.7,286046999.9,N
1650146735.5,286047002.8,N
1650146755.4,286047000.3,N
1650146775.2,286046998.4,N
1650146795.0,286046999.9,N
1650146796.0,286046999.9,N
1650146815.8,286047001.3,N
1650146835.6,286047003.8,N
1650146855.5,286047004.3,N
1650146875.3,286047002.5,N
1650146895.1,286047000.4,N
1650146915.9,286047000.2,N
1650146935.7,286046999.7,N
1650146955.6,286047000.6,N
1650146975.4,286047002.6,N
1650146995.2,286047002.8,N
1650147015.1,286046998.4,N
1650147016.0,286046998.4,N
1650147035.8,286046998.9,N
1650147055.7,286046998.1,N
1650147075.5,286046999.7,N
1650147095.3,286046999.8,N
1650147115.2,286047000.9,N
1650147135.0,286047001.5,N
1650147135.9,286047001.5,N
1650147155.7,286047001.9,N
1650147175.6,286047001.4,N
1650147195.4,286047003.1,N
1650147215.3,286047003.3,N
1650147235.1,286047001.4,N
1650147236.0,286047001.4,N
1650147255.8,286047003.4,N
1650147275.7,286047001.9,N
1650147295.5,286047002.0,N
1650147315.3,286047003.9,N
1650147335.2,286047004.4,N
1650147355.0,286046999.9,N
1650147355.9,286046999.9,N
1650147375.8,286047002.6,N
1650147395.6,286047004.2,N
1650147415.4,286046998.1,N
1650147435.3,286047000.8,N
1650147455.1,286047000.5,N
1650147475.9,286046998.3,N
1650147495.7,286047000.7,N
1650147515.5,286047000.3,N
1650147535.4,286047001.1,N
1650147555.2,286047000.3,N
1650147575.0,286047001.3,N
1650147575.9,286047001.3,N
1650147595.8,286047001.4,N
1650147615.6,286047002.6,N
1650147635.5,286047002.3,N
1650147655.3,286047001.7,N
1650147675.1,286047004.4,N
1650147695.9,286047002.6,N
1650147715.7,286047002.8,N
1650147735.5,286047004.3,N
1650147755.4,286047002.0,N
1650147775.2,286047000.1,N
1650147795.1,286047002.2,N
1650147796.0,286047002.2,N
1650147815.8,286047001.7,N
1650147835.6,286047001.9,N
1650147855.5,286047000.9,N
1650147875.3,286046999.8,N
1650147895.1,286047002.7,N
1650147915.9,286047002.5,N
1650147935.7,286047002.7,N
1650147955.6,286047001.9,N
1650147975.4,286047002.3,N
1650148025.3,286047002.8,E
1650148035.2,286047000.0,N
1650148055.0,286047000.5,P
1650148055.9,286047000.5,N
1650148075.8,286046998.1,Y
1650148095.6,286046999.2,P
1650148115.5,286046998.1,P
1650148135.3,286046999.2,N
1650148155.1,286046997.8,N
1650148175.9,286046997.2,Y
1650148195.7,286046999.1,P
1650148215.5,286046998.9,P
1650148235.4,286046999.0,P
1650148255.2,286047002.7,Y
1650148275.1,286047002.1,P
1650148276.0,286047002.1,N
1650148295.8,286047000.5,N
1650148315.6,286046998.6,N
1650148335.5,286046997.3,N
1650148355.3,286046999.4,N
1650148375.1,286046999.5,N
1650148395.0,286046999.4,N
1650148395.9,286046999.4,N
1650148415.7,286046999.5,N
1650148435.6,286046999.4,N
1650148455.4,286046999.5,N
1650148475.3,286046997.4,N
1650148495.1,286046996.7,N
1650148496.0,286046996.7,N
1650148515.8,286046998.1,N
1650148535.7,286047000.3,N
1650148555.5,286047000.2,N
1650148575.3,286047002.2,N
1650148595.2,286047001.1,N
1650148615.0,286047002.5,N
1650148615.9,286047002.5,N
1650148635.8,286046999.8,N
1650148655.6,286046998.2,N
1650148675.4,286046999.9,N
1650148695.3,286047000.4,N
1650148715.1,286047000.2,N
1650148735.8,286047000.0,N
1650148755.7,286046998.6,N
1650148775.5,286046998.1,N
1650148795.4,286046998.5,N
1650148815.2,286047000.7,N
1650148835.0,286047000.8,N
1650148835.9,286047000.8,N
1650148855.8,286047000.3,N
1650148875.6,286047001.0,N
1650148895.5,286046999.8,N
1650148915.3,286047000.5,N
1650148935.1,286047002.2,N
1650148955.9,286047002.6,N
1650148975.7,286047002.0,N
1650148995.5,286047001.7,N
1650149015.4,286047002.0,N
1650149035.2,286047001.5,N
1650149055.1,286047001.6,N
1650149056.0,286047001.6,N
1650149075.8,286047002.2,N
1650149095.6,286047002.5,N
1650149115.5,286047001.9,N
1650149135.3,286046999.8,N
1650149155.1,286047001.2,N
1650149175.9,286047002.8,N
1650149195.7,286047002.5,N
1650149215.6,286047001.1,N
1650149235.4,286046998.8,N
1650149255.2,286046998.6,N
1650149275.1,286047000.7,N
1650149276.0,286047000.7,N
1650149295.8,286046998.2,N
1650149315.7,286047000.8,N
1650149335.5,286046997.1,N
1650149355.3,286046996.5,N
1650149375.2,286046997.2,N
1650149395.0,286046999.6,N
1650149395.9,286046999.6,N
1650149415.8,286046999.2,N
1650149435.6,286046998.8,N
1650149455.4,286046998.5,N
1650149475.3,286046999.8,N
1650149495.1,286047002.2,N
1650149515.9,286047001.6,N
1650149535.7,286046998.9,N
1650149555.5,286046998.7,N
1650149575.4,286046998.1,N
1650149595.2,286046998.7,N
1650149615.0,286046996.6,N
1650149616.0,286046996.6,N
1650149635.8,286046994.9,N
1650149655.6,286046995.5,N
1650149675.5,286046995.5,N
1650149695.3,286046997.9,N
1650149715.1,286046998.9,N
1650149735.9,286046998.6,N
1650149755.7,286047002.7,N
1650149775.6,286047002.8,N
1650149795.4,286047000.8,N
1650149815.2,286046998.1,N
1650149835.1,286047001.0,N
1650149836.0,286047001.0,N
1650149855.8,286046998.1,N
1650149875.7,286047000.8,N
1650149895.5,286046999.0,N
1650149915.3,286046998.4,N
1650149935.2,286046996.7,N
1650149955.0,286046998.2,N
1650149955.9,286046998.2,N
1650149975.8,286046998.2,N
1650149995.6,286046998.7,N
